Torna al catalogo

COSMOS 2004

AttivoMilitarePO
NORAD 19826·PAYLOAD·🇷🇺 Russia

Lanciato Feb 22, 1989 da Plesetsk Cosmodrome

Loading…

Prossimi Passaggi (prossime 24 ore)

TLE

AggiornatoSource: Space-Track

Epoca: Sep 14, 2026, 14:57 UTC

1 19826U 89017A   26257.62320432  .00000047  00000-0  35273-4 0  9990
2 19826  82.9520 217.4232 0030272   4.5111 169.5624 13.72561472880750

Traccia COSMOS 2004 in tempo reale con AllMySat

Download on the App Store